| time (UTC) | temp F | wind direction | speed MPH | gust MPH | rain 1hr in | rain 24hr in | rain mn in | humidity % | barometer mb |
| 20260903213037 | 65 | 59 | 1.0 | 3.0 | 0.00 | 0.10 | 0.10 | 1 | 1013.2 |
| 20260903211535 | 65 | 325 | 2.0 | 3.0 | 0.00 | 0.10 | 0.10 | 1 | 1013.2 |
| 20260903210025 | 65 | 321 | 0.0 | 4.0 | 0.00 | 0.10 | 0.10 | 1 | 1013.3 |
| 20260903204521 | 66 | 317 | 1.0 | 4.0 | 0.00 | 0.10 | 0.10 | 1 | 1013.5 |
| 20260903203016 | 66 | 319 | 1.0 | 4.0 | 0.00 | 0.10 | 0.10 | 1 | 1013.4 |
| 20260903201512 | 66 | 313 | 1.0 | 4.0 | 0.00 | 0.10 | 0.10 | 1 | 1013.6 |
| 20260903200008 | 65 | 54 | 0.0 | 2.0 | 0.00 | 0.10 | 0.10 | 1 | 1013.4 |
| 20260903194503 | 64 | 52 | 1.0 | 3.0 | 0.00 | 0.10 | 0.10 | 1 | 1013.6 |
| 20260903193058 | 64 | 46 | 0.0 | 3.0 | 0.00 | 0.10 | 0.10 | 1 | 1013.8 |
| 20260903191553 | 65 | 44 | 0.0 | 3.0 | 0.00 | 0.10 | 0.10 | 1 | 1014.0 |
| 20260903190050 | 63 | 44 | 0.0 | 4.0 | 0.00 | 0.10 | 0.10 | 1 | 1014.1 |
| 20260903184546 | 63 | 42 | 1.0 | 3.0 | 0.00 | 0.10 | 0.10 | 1 | 1014.1 |
| 20260903183046 | 63 | 42 | 1.0 | 3.0 | 0.00 | 0.10 | 0.10 | 1 | 1014.3 |
| 20260903181537 | 63 | 41 | 2.0 | 5.0 | 0.00 | 0.10 | 0.10 | 1 | 1014.4 |
| 20260903180039 | 63 | 42 | 0.0 | 6.0 | 0.00 | 0.10 | 0.10 | 1 | 1014.6 |
| 20260903174531 | 63 | 42 | 0.0 | 2.0 | 0.00 | 0.10 | 0.10 | 1 | 1014.4 |
| 20260903173024 | 62 | 41 | 1.0 | 4.0 | 0.00 | 0.10 | 0.10 | 1 | 1014.5 |
| 20260903171520 | 62 | 90 | 0.0 | 2.0 | 0.00 | 0.10 | 0.10 | 1 | 1014.5 |
| 20260903170015 | 62 | 90 | 1.0 | 3.0 | 0.00 | 0.10 | 0.10 | 1 | 1014.6 |
| 20260903164510 | 61 | 98 | 2.0 | 4.0 | 0.00 | 0.10 | 0.10 | 1 | 1014.4 |
| 20260903163006 | 61 | 54 | 0.0 | 3.0 | 0.00 | 0.10 | 0.10 | 1 | 1014.5 |
| 20260903161502 | 60 | 61 | 3.0 | 5.0 | 0.00 | 0.10 | 0.10 | 1 | 1014.7 |
| 20260903160126 | 60 | 16 | 1.0 | 4.0 | 0.00 | 0.10 | 0.10 | 1 | 1015.0 |
| 20260903154606 | 60 | 15 | 1.0 | 3.0 | 0.00 | 0.10 | 0.10 | 1 | 1015.1 |
| 20260903153051 | 59 | 15 | 1.0 | 4.0 | 0.00 | 0.10 | 0.10 | 1 | 1015.3 |
| 20260903151544 | 59 | 342 | 1.0 | 4.0 | 0.00 | 0.10 | 0.10 | 1 | 1015.5 |
| 20260903150039 | 59 | 336 | 1.0 | 3.0 | 0.00 | 0.10 | 0.10 | 1 | 1015.6 |
| 20260903144536 | 59 | 188 | 1.0 | 3.0 | 0.00 | 0.10 | 0.10 | 1 | 1015.8 |
| 20260903143036 | 59 | 153 | 0.0 | 3.0 | 0.00 | 0.10 | 0.10 | 1 | 1015.7 |
| 20260903141527 | 59 | 151 | 1.0 | 3.0 | 0.00 | 0.10 | 0.10 | 1 | 1015.8 |
| 20260903140023 | 58 | 151 | 0.0 | 2.0 | 0.00 | 0.10 | 0.10 | 1 | 1015.8 |
| 20260903134518 | 58 | 151 | 0.0 | 3.0 | 0.00 | 0.10 | 0.10 | 1 | 1015.8 |
| 20260903133018 | 58 | 147 | 0.0 | 1.0 | 0.00 | 0.10 | 0.10 | 1 | 1015.8 |
| 20260903131510 | 57 | 148 | 0.0 | 3.0 | 0.00 | 0.10 | 0.10 | 1 | 1015.8 |
| 20260903130005 | 57 | 148 | 2.0 | 5.0 | 0.00 | 0.10 | 0.10 | 1 | 1015.8 |
| 20260903124605 | 57 | 150 | 1.0 | 3.0 | 0.00 | 0.10 | 0.10 | 1 | 1016.1 |
| 20260903123056 | 57 | 151 | 1.0 | 5.0 | 0.00 | 0.10 | 0.10 | 1 | 1016.3 |
| 20260903121552 | 57 | 151 | 1.0 | 5.0 | 0.00 | 0.10 | 0.10 | 1 | 1016.4 |
| 20260903120048 | 57 | 156 | 2.0 | 6.0 | 0.00 | 0.10 | 0.10 | 1 | 1016.4 |
| 20260903114546 | 57 | 164 | 0.0 | 5.0 | 0.00 | 0.10 | 0.10 | 1 | 1016.3 |
| 20260903113039 | 56 | 119 | 0.0 | 1.0 | 0.00 | 0.10 | 0.10 | 1 | 1016.4 |
| 20260903111541 | 56 | 119 | 1.0 | 4.0 | 0.01 | 0.10 | 0.10 | 1 | 1016.4 |
| 20260903110032 | 56 | 110 | 2.0 | 4.0 | 0.01 | 0.10 | 0.10 | 1 | 1016.3 |
| 20260903104527 | 55 | 134 | 1.0 | 5.0 | 0.01 | 0.10 | 0.10 | 1 | 1016.4 |
| 20260903103023 | 55 | 174 | 0.0 | 4.0 | 0.01 | 0.10 | 0.10 | 1 | 1016.5 |
| 20260903101533 | 55 | 175 | 0.0 | 2.0 | 0.01 | 0.09 | 0.09 | 1 | 1016.5 |
| 20260903100016 | 55 | 185 | 2.0 | 5.0 | 0.01 | 0.09 | 0.09 | 1 | 1016.4 |
| 20260903094510 | 55 | 149 | 1.0 | 4.0 | 0.01 | 0.09 | 0.09 | 1 | 1016.4 |
| 20260903093004 | 55 | 152 | 1.0 | 8.0 | 0.01 | 0.09 | 0.09 | 1 | 1016.5 |
| 20260903091600 | 56 | 182 | 1.0 | 9.0 | 0.00 | 0.08 | 0.08 | 1 | 1016.6 |
| 20260903090058 | 56 | 171 | 4.0 | 8.0 | 0.00 | 0.08 | 0.08 | 1 | 1016.9 |
| 20260903084551 | 57 | 196 | 3.0 | 14.0 | 0.00 | 0.08 | 0.08 | 1 | 1017.0 |
| 20260903083046 | 57 | 111 | 3.0 | 7.0 | 0.06 | 0.08 | 0.08 | 1 | 1017.0 |
| 20260903081542 | 57 | 121 | 2.0 | 6.0 | 0.08 | 0.08 | 0.08 | 1 | 1017.4 |
| 20260903080037 | 58 | 126 | 3.0 | 9.0 | 0.08 | 0.08 | 0.08 | 1 | 1017.3 |
| 20260903074532 | 58 | 135 | 1.0 | 7.0 | 0.08 | 0.08 | 0.08 | 1 | 1017.4 |
| 20260903073028 | 59 | 118 | 1.0 | 7.0 | 0.01 | 0.01 | 0.01 | 1 | 1017.5 |
| 20260903071524 | 60 | 195 | 2.0 | 10.0 | 0.00 | 0.00 | 0.00 | 1 | 1017.4 |
| 20260903070021 | 59 | 140 | 2.0 | 10.0 | 0.00 | 0.00 | 0.00 | 1 | 1017.1 |
| 20260903064519 | 59 | 109 | 3.0 | 9.0 | 0.00 | 0.00 | 0.00 | 1 | 1017.1 |
| 20260903063028 | 59 | 144 | 5.0 | 14.0 | 0.00 | 0.00 | 0.00 | 1 | 1017.8 |
| 20260903061517 | 59 | 134 | 3.0 | 9.0 | 0.00 | 0.00 | 0.00 | 1 | 1018.2 |
| 20260903060006 | 59 | 167 | 4.0 | 10.0 | 0.00 | 0.00 | 0.00 | 1 | 1018.6 |
| 20260903054501 | 59 | 153 | 5.0 | 8.0 | 0.00 | 0.00 | 0.00 | 1 | 1018.6 |
| 20260903053056 | 59 | 110 | 5.0 | 10.0 | 0.00 | 0.00 | 0.00 | 1 | 1018.9 |
| 20260903051552 | 59 | 81 | 1.0 | 5.0 | 0.00 | 0.00 | 0.00 | 1 | 1019.4 |
| 20260903050108 | 58 | 94 | 2.0 | 10.0 | 0.00 | 0.00 | 0.00 | 1 | 1019.0 |
| 20260903044543 | 58 | 116 | 3.0 | 9.0 | 0.00 | 0.00 | 0.00 | 1 | 1018.9 |
| 20260903043039 | 59 | 105 | 2.0 | 8.0 | 0.00 | 0.00 | 0.00 | 1 | 1019.0 |
| 20260903041534 | 59 | 138 | 3.0 | 8.0 | 0.00 | 0.00 | 0.00 | 1 | 1019.3 |
| 20260903040029 | 59 | 111 | 2.0 | 7.0 | 0.00 | 0.00 | 0.00 | 1 | 1019.4 |
| 20260903034529 | 59 | 117 | 0.0 | 7.0 | 0.00 | 0.00 | 0.00 | 1 | 1019.7 |
| 20260903033021 | 59 | 143 | 4.0 | 9.0 | 0.00 | 0.00 | 0.00 | 1 | 1019.7 |
| 20260903031518 | 59 | 131 | 4.0 | 8.0 | 0.00 | 0.00 | 0.00 | 1 | 1020.1 |
| 20260903030015 | 60 | 141 | 3.0 | 8.0 | 0.00 | 0.00 | 0.00 | 1 | 1020.3 |
| 20260903024508 | 60 | 148 | 1.0 | 7.0 | 0.00 | 0.00 | 0.00 | 1 | 1020.2 |
| 20260903023004 | 60 | 130 | 4.0 | 11.0 | 0.00 | 0.00 | 0.00 | 5 | 1020.0 |
| 20260903021600 | 60 | 138 | 4.0 | 11.0 | 0.00 | 0.00 | 0.00 | 9 | 1020.1 |
| 20260903020055 | 60 | 145 | 6.0 | 12.0 | 0.00 | 0.00 | 0.00 | 18 | 1020.2 |
| 20260903014552 | 61 | 126 | 5.0 | 12.0 | 0.00 | 0.00 | 0.00 | 28 | 1020.1 |
| 20260903013046 | 61 | 149 | 6.0 | 15.0 | 0.00 | 0.00 | 0.00 | 34 | 1020.1 |
| 20260903011556 | 61 | 144 | 4.0 | 14.0 | 0.00 | 0.00 | 0.00 | 44 | 1020.3 |
| 20260903010037 | 61 | 134 | 5.0 | 11.0 | 0.00 | 0.00 | 0.00 | 51 | 1020.2 |
| 20260903004532 | 61 | 127 | 6.0 | 12.0 | 0.00 | 0.00 | 0.00 | 53 | 1020.1 |
| 20260903003028 | 61 | 174 | 5.0 | 12.0 | 0.00 | 0.00 | 0.00 | 50 | 1019.8 |
| 20260903001523 | 61 | 109 | 3.0 | 10.0 | 0.00 | 0.00 | 0.00 | 51 | 1019.7 |
| 20260903000021 | 61 | 146 | 5.0 | 14.0 | 0.00 | 0.00 | 0.00 | 53 | 1019.8 |
| 20260902234517 | 62 | 139 | 5.0 | 9.0 | 0.00 | 0.00 | 0.00 | 55 | 1020.1 |
| 20260902233010 | 62 | 151 | 6.0 | 9.0 | 0.00 | 0.00 | 0.00 | 57 | 1020.4 |
| 20260902231511 | 62 | 140 | 5.0 | 11.0 | 0.00 | 0.00 | 0.00 | 58 | 1020.8 |
| 20260902230100 | 63 | 138 | 4.0 | 9.0 | 0.00 | 0.00 | 0.00 | 60 | 1020.7 |
| 20260902224601 | 63 | 168 | 5.0 | 10.0 | 0.00 | 0.00 | 0.00 | 61 | 1021.1 |
| 20260902223054 | 63 | 146 | 3.0 | 10.0 | 0.00 | 0.00 | 0.00 | 62 | 1021.1 |
| 20260902221551 | 64 | 144 | 4.0 | 9.0 | 0.00 | 0.00 | 0.00 | 63 | 1021.3 |
| 20260902220047 | 64 | 124 | 4.0 | 11.0 | 0.00 | 0.00 | 0.00 | 63 | 1021.3 |
| 20260902214543 | 64 | 160 | 5.0 | 10.0 | 0.00 | 0.00 | 0.00 | 63 | 1021.2 |